| time (UTC) | temp F | wind direction | speed knots | gust knots | rain 1hr in | rain 24hr in | rain mn in | humidity % | barometer mb |
| 20260905205043 | 65 | 156 | 0.0 | 0.0 | 0.00 | 0.00 | 0.00 | 69 | 1020.4 |
| 20260905204538 | 64 | 179 | 1.7 | 2.6 | 0.00 | 0.00 | 0.00 | 69 | 1020.4 |
| 20260905204033 | 64 | 170 | 1.7 | 2.6 | 0.00 | 0.00 | 0.00 | 70 | 1020.5 |
| 20260905203533 | 64 | 132 | 0.9 | 0.9 | 0.00 | 0.00 | 0.00 | 70 | 1020.6 |
| 20260905203028 | 64 | 144 | 0.9 | 1.7 | 0.00 | 0.00 | 0.00 | 68 | 1020.5 |
| 20260905202523 | 64 | 188 | 1.7 | 1.7 | 0.00 | 0.00 | 0.00 | 68 | 1020.7 |
| 20260905202019 | 64 | 148 | 0.0 | 0.9 | 0.00 | 0.00 | 0.00 | 67 | 1020.5 |
| 20260905201515 | 63 | 166 | 0.0 | 0.9 | 0.00 | 0.00 | 0.00 | 68 | 1020.6 |
| 20260905201014 | 63 | 200 | 0.9 | 1.7 | 0.00 | 0.00 | 0.00 | 69 | 1020.7 |
| 20260905200510 | 63 | 196 | 2.6 | 2.6 | 0.00 | 0.00 | 0.00 | 69 | 1020.7 |
| 20260905200009 | 63 | 200 | 2.6 | 4.3 | 0.00 | 0.00 | 0.00 | 70 | 1020.6 |
| 20260905195503 | 63 | 237 | 1.7 | 2.6 | 0.00 | 0.00 | 0.00 | 71 | 1020.6 |
| 20260905194958 | 62 | 183 | 1.7 | 2.6 | 0.00 | 0.00 | 0.00 | 72 | 1020.7 |
| 20260905194458 | 62 | 230 | 1.7 | 2.6 | 0.00 | 0.00 | 0.00 | 72 | 1020.7 |
| 20260905193957 | 63 | 184 | 1.7 | 2.6 | 0.00 | 0.00 | 0.00 | 72 | 1020.8 |
| 20260905193452 | 63 | 152 | 2.6 | 4.3 | 0.00 | 0.00 | 0.00 | 72 | 1020.8 |
| 20260905192947 | 63 | 182 | 1.7 | 2.6 | 0.00 | 0.00 | 0.00 | 72 | 1020.8 |
| 20260905192443 | 63 | 223 | 2.6 | 4.3 | 0.00 | 0.00 | 0.00 | 72 | 1020.9 |
| 20260905191938 | 64 | 148 | 4.3 | 5.2 | 0.00 | 0.00 | 0.00 | 69 | 1020.9 |
| 20260905191438 | 64 | 213 | 1.7 | 4.3 | 0.00 | 0.00 | 0.00 | 70 | 1020.9 |
| 20260905190937 | 64 | 210 | 1.7 | 4.3 | 0.00 | 0.00 | 0.00 | 71 | 1020.9 |
| 20260905190435 | 64 | 126 | 1.7 | 6.1 | 0.00 | 0.00 | 0.00 | 69 | 1021.0 |
| 20260905185934 | 65 | 212 | 5.2 | 7.0 | 0.00 | 0.00 | 0.00 | 68 | 1021.1 |
| 20260905185429 | 64 | 164 | 2.6 | 4.3 | 0.00 | 0.00 | 0.00 | 70 | 1021.1 |
| 20260905184928 | 62 | 186 | 1.7 | 7.8 | 0.00 | 0.00 | 0.00 | 70 | 1021.1 |
| 20260905184423 | 62 | 214 | 2.6 | 4.3 | 0.00 | 0.00 | 0.00 | 72 | 1021.2 |
| 20260905183921 | 61 | 214 | 2.6 | 2.6 | 0.00 | 0.00 | 0.00 | 75 | 1021.1 |
| 20260905183416 | 61 | 184 | 0.9 | 4.3 | 0.00 | 0.00 | 0.00 | 75 | 1021.1 |
| 20260905182911 | 61 | 229 | 2.6 | 4.3 | 0.00 | 0.00 | 0.00 | 74 | 1021.2 |
| 20260905182410 | 61 | 177 | 1.7 | 4.3 | 0.00 | 0.00 | 0.00 | 74 | 1021.2 |
| 20260905181907 | 61 | 166 | 1.7 | 5.2 | 0.00 | 0.00 | 0.00 | 75 | 1021.3 |
| 20260905181406 | 61 | 203 | 0.9 | 2.6 | 0.00 | 0.00 | 0.00 | 75 | 1021.4 |
| 20260905180905 | 61 | 181 | 0.9 | 2.6 | 0.00 | 0.00 | 0.00 | 75 | 1021.3 |
| 20260905180401 | 61 | 167 | 0.9 | 1.7 | 0.00 | 0.00 | 0.00 | 75 | 1021.4 |
| 20260905175855 | 61 | 196 | 1.7 | 2.6 | 0.00 | 0.00 | 0.00 | 75 | 1021.2 |
| 20260905175349 | 60 | 212 | 2.6 | 2.6 | 0.00 | 0.00 | 0.00 | 76 | 1021.5 |
| 20260905174844 | 60 | 194 | 1.7 | 2.6 | 0.00 | 0.00 | 0.00 | 77 | 1021.3 |
| 20260905174340 | 60 | 184 | 0.9 | 1.7 | 0.00 | 0.00 | 0.00 | 77 | 1021.4 |
| 20260905173836 | 60 | 174 | 0.9 | 2.6 | 0.00 | 0.00 | 0.00 | 77 | 1021.1 |
| 20260905173332 | 60 | 200 | 1.7 | 2.6 | 0.00 | 0.00 | 0.00 | 77 | 1021.1 |
| 20260905172832 | 60 | 159 | 0.0 | 0.9 | 0.00 | 0.00 | 0.00 | 77 | 1021.1 |
| 20260905172330 | 60 | 179 | 1.7 | 2.6 | 0.00 | 0.00 | 0.00 | 77 | 1021.1 |
| 20260905171826 | 61 | 179 | 2.6 | 2.6 | 0.00 | 0.00 | 0.00 | 76 | 1021.0 |
| 20260905171323 | 61 | 190 | 1.7 | 2.6 | 0.00 | 0.00 | 0.00 | 75 | 1020.9 |
| 20260905170819 | 60 | 181 | 1.7 | 2.6 | 0.00 | 0.00 | 0.00 | 75 | 1021.1 |
| 20260905170314 | 61 | 185 | 2.6 | 4.3 | 0.00 | 0.00 | 0.00 | 74 | 1021.3 |
| 20260905165813 | 61 | 167 | 0.0 | 1.7 | 0.00 | 0.00 | 0.00 | 73 | 1020.8 |
| 20260905165309 | 62 | 168 | 1.7 | 2.6 | 0.00 | 0.00 | 0.00 | 71 | 1020.8 |
| 20260905164810 | 62 | 146 | 0.0 | 1.7 | 0.00 | 0.00 | 0.00 | 73 | 1021.1 |
| 20260905164309 | 61 | 149 | 0.0 | 0.9 | 0.00 | 0.00 | 0.00 | 75 | 1020.9 |
| 20260905163805 | 60 | 154 | 0.0 | 0.9 | 0.00 | 0.00 | 0.00 | 77 | 1020.9 |
| 20260905163301 | 59 | 167 | 0.0 | 0.9 | 0.00 | 0.00 | 0.00 | 78 | 1020.8 |
| 20260905162757 | 59 | 162 | 0.0 | 0.0 | 0.00 | 0.00 | 0.00 | 79 | 1020.7 |
| 20260905162256 | 58 | 152 | 0.0 | 0.0 | 0.00 | 0.00 | 0.00 | 79 | 1020.8 |
| 20260905161751 | 58 | 130 | 0.0 | 0.0 | 0.00 | 0.00 | 0.00 | 80 | 1020.8 |
| 20260905161250 | 58 | 151 | 0.0 | 0.0 | 0.00 | 0.00 | 0.00 | 80 | 1020.9 |
| 20260905160749 | 58 | 138 | 0.0 | 0.0 | 0.00 | 0.00 | 0.00 | 80 | 1020.6 |
| 20260905160249 | 58 | 138 | 0.0 | 0.0 | 0.00 | 0.00 | 0.00 | 79 | 1020.8 |
| 20260905155744 | 58 | 151 | 0.0 | 0.0 | 0.00 | 0.00 | 0.00 | 80 | 1020.8 |
| 20260905155242 | 58 | 157 | 0.0 | 0.0 | 0.00 | 0.00 | 0.00 | 81 | 1020.8 |
| 20260905154737 | 57 | 159 | 0.0 | 0.0 | 0.00 | 0.00 | 0.00 | 82 | 1020.7 |
| 20260905154233 | 57 | 159 | 0.0 | 0.0 | 0.00 | 0.00 | 0.00 | 82 | 1021.0 |
| 20260905153728 | 57 | 168 | 0.0 | 0.0 | 0.00 | 0.00 | 0.00 | 83 | 1020.9 |
| 20260905153224 | 57 | 156 | 0.0 | 0.0 | 0.00 | 0.00 | 0.00 | 84 | 1021.0 |
| 20260905152719 | 56 | 153 | 0.0 | 0.0 | 0.00 | 0.00 | 0.00 | 85 | 1021.0 |
| 20260905152213 | 56 | 154 | 0.0 | 0.0 | 0.00 | 0.00 | 0.00 | 86 | 1020.7 |
| 20260905151713 | 55 | 142 | 0.0 | 0.0 | 0.00 | 0.00 | 0.00 | 87 | 1020.9 |
| 20260905151209 | 55 | 139 | 0.0 | 0.0 | 0.00 | 0.00 | 0.00 | 89 | 1020.9 |
| 20260905150704 | 54 | 152 | 0.0 | 0.0 | 0.00 | 0.00 | 0.00 | 91 | 1020.9 |
| 20260905150202 | 54 | 154 | 0.0 | 0.0 | 0.00 | 0.00 | 0.00 | 92 | 1020.9 |
| 20260905145700 | 53 | 147 | 0.0 | 0.0 | 0.00 | 0.00 | 0.00 | 92 | 1020.8 |
| 20260905145155 | 53 | 150 | 0.0 | 0.0 | 0.00 | 0.00 | 0.00 | 93 | 1020.8 |
| 20260905144655 | 53 | 155 | 0.0 | 0.0 | 0.00 | 0.00 | 0.00 | 94 | 1020.6 |
| 20260905144154 | 52 | 151 | 0.0 | 0.0 | 0.00 | 0.00 | 0.00 | 94 | 1020.6 |
| 20260905143648 | 52 | 154 | 0.0 | 0.0 | 0.00 | 0.00 | 0.00 | 94 | 1020.7 |
| 20260905143143 | 52 | 155 | 0.0 | 0.0 | 0.00 | 0.00 | 0.00 | 95 | 1020.4 |
| 20260905142641 | 52 | 158 | 0.0 | 0.0 | 0.00 | 0.00 | 0.00 | 94 | 1020.4 |
| 20260905142136 | 52 | 160 | 0.0 | 0.0 | 0.00 | 0.00 | 0.00 | 95 | 1020.5 |
| 20260905141636 | 52 | 158 | 0.0 | 0.0 | 0.00 | 0.00 | 0.00 | 94 | 1020.2 |
| 20260905141133 | 52 | 150 | 0.0 | 0.0 | 0.00 | 0.00 | 0.00 | 94 | 1020.2 |
| 20260905140628 | 52 | 154 | 0.0 | 0.0 | 0.00 | 0.00 | 0.00 | 94 | 1020.3 |
| 20260905140127 | 51 | 154 | 0.0 | 0.0 | 0.00 | 0.00 | 0.00 | 95 | 1020.3 |
| 20260905135622 | 51 | 151 | 0.0 | 0.0 | 0.00 | 0.00 | 0.00 | 95 | 1020.2 |
| 20260905135118 | 51 | 151 | 0.0 | 0.0 | 0.00 | 0.00 | 0.00 | 95 | 1020.2 |
| 20260905134612 | 51 | 150 | 0.0 | 0.0 | 0.00 | 0.00 | 0.00 | 95 | 1020.1 |
| 20260905134111 | 51 | 147 | 0.0 | 0.0 | 0.00 | 0.00 | 0.00 | 95 | 1020.0 |
| 20260905133607 | 51 | 152 | 0.0 | 0.0 | 0.00 | 0.00 | 0.00 | 95 | 1020.0 |
| 20260905133101 | 51 | 152 | 0.0 | 0.0 | 0.00 | 0.00 | 0.00 | 95 | 1020.2 |
| 20260905132600 | 51 | 148 | 0.0 | 0.0 | 0.00 | 0.00 | 0.00 | 95 | 1020.3 |
| 20260905132055 | 51 | 155 | 0.0 | 0.0 | 0.00 | 0.00 | 0.00 | 95 | 1020.1 |
| 20260905131551 | 51 | 151 | 0.0 | 0.0 | 0.00 | 0.00 | 0.00 | 95 | 1020.4 |
| 20260905131046 | 51 | 154 | 0.0 | 0.0 | 0.00 | 0.00 | 0.00 | 95 | 1020.4 |
| 20260905130544 | 51 | 149 | 0.0 | 0.0 | 0.00 | 0.00 | 0.00 | 95 | 1020.1 |
| 20260905130040 | 51 | 150 | 0.0 | 0.0 | 0.00 | 0.00 | 0.00 | 95 | 1020.1 |
| 20260905125539 | 51 | 154 | 0.0 | 0.0 | 0.00 | 0.00 | 0.00 | 95 | 1020.0 |
| 20260905125035 | 51 | 151 | 0.0 | 0.0 | 0.00 | 0.00 | 0.00 | 95 | 1020.2 |
| 20260905124531 | 51 | 147 | 0.0 | 0.0 | 0.00 | 0.00 | 0.00 | 95 | 1020.0 |
| 20260905124027 | 51 | 150 | 0.0 | 0.0 | 0.00 | 0.00 | 0.00 | 95 | 1019.9 |
| 20260905123523 | 51 | 126 | 0.0 | 0.0 | 0.00 | 0.00 | 0.00 | 95 | 1019.9 |
| 20260905123019 | 51 | 152 | 0.0 | 0.0 | 0.00 | 0.00 | 0.00 | 95 | 1020.0 |
| 20260905122513 | 50 | 136 | 0.0 | 0.0 | 0.00 | 0.00 | 0.00 | 95 | 1020.0 |
| 20260905122008 | 50 | 152 | 0.0 | 0.0 | 0.00 | 0.00 | 0.00 | 95 | 1020.1 |
| 20260905121503 | 50 | 141 | 0.0 | 0.0 | 0.00 | 0.00 | 0.00 | 95 | 1020.0 |
| 20260905121002 | 50 | 149 | 0.0 | 0.0 | 0.00 | 0.00 | 0.00 | 95 | 1019.9 |
| 20260905120456 | 50 | 148 | 0.0 | 0.0 | 0.00 | 0.00 | 0.00 | 95 | 1020.1 |
| 20260905115952 | 50 | 155 | 0.0 | 0.0 | 0.00 | 0.00 | 0.00 | 95 | 1020.1 |
| 20260905115451 | 50 | 153 | 0.0 | 0.0 | 0.00 | 0.00 | 0.00 | 95 | 1020.2 |
| 20260905114946 | 50 | 139 | 0.0 | 0.0 | 0.00 | 0.00 | 0.00 | 95 | 1020.0 |
| 20260905114446 | 50 | 158 | 0.0 | 0.0 | 0.00 | 0.00 | 0.00 | 95 | 1020.1 |
| 20260905113944 | 50 | 153 | 0.0 | 0.0 | 0.00 | 0.00 | 0.00 | 95 | 1020.0 |
| 20260905113440 | 50 | 152 | 0.0 | 0.0 | 0.00 | 0.00 | 0.00 | 95 | 1019.9 |
| 20260905112935 | 50 | 150 | 0.0 | 0.0 | 0.00 | 0.00 | 0.00 | 95 | 1019.9 |
| 20260905112430 | 50 | 149 | 0.0 | 0.0 | 0.00 | 0.00 | 0.00 | 95 | 1019.8 |
| 20260905111925 | 50 | 151 | 0.0 | 0.0 | 0.00 | 0.00 | 0.00 | 95 | 1019.8 |
| 20260905111420 | 50 | 152 | 0.0 | 0.0 | 0.00 | 0.00 | 0.00 | 95 | 1019.9 |
| 20260905110920 | 50 | 152 | 0.0 | 0.0 | 0.00 | 0.00 | 0.00 | 95 | 1019.9 |
| 20260905110413 | 50 | 147 | 0.0 | 0.0 | 0.00 | 0.00 | 0.00 | 95 | 1019.7 |
| 20260905105908 | 51 | 154 | 0.0 | 0.0 | 0.00 | 0.00 | 0.00 | 95 | 1019.7 |
| 20260905105408 | 51 | 140 | 0.0 | 0.0 | 0.00 | 0.00 | 0.00 | 95 | 1019.7 |
| 20260905104903 | 51 | 132 | 0.0 | 0.0 | 0.00 | 0.00 | 0.00 | 95 | 1019.8 |
| 20260905104358 | 51 | 150 | 0.0 | 0.0 | 0.00 | 0.00 | 0.00 | 95 | 1019.8 |
| 20260905103853 | 51 | 151 | 0.0 | 0.0 | 0.00 | 0.00 | 0.00 | 95 | 1019.7 |
| 20260905103349 | 51 | 141 | 0.0 | 0.0 | 0.00 | 0.00 | 0.00 | 95 | 1019.6 |
| 20260905102844 | 51 | 142 | 0.0 | 0.0 | 0.00 | 0.00 | 0.00 | 95 | 1019.6 |
| 20260905102341 | 51 | 156 | 0.0 | 0.0 | 0.00 | 0.00 | 0.00 | 95 | 1019.6 |
| 20260905101840 | 51 | 149 | 0.0 | 0.0 | 0.00 | 0.00 | 0.00 | 95 | 1019.5 |
| 20260905101338 | 51 | 137 | 0.0 | 0.0 | 0.00 | 0.00 | 0.00 | 95 | 1019.7 |
| 20260905100833 | 51 | 141 | 0.0 | 2.6 | 0.00 | 0.00 | 0.00 | 95 | 1019.6 |
| 20260905100329 | 52 | 136 | 0.9 | 1.7 | 0.00 | 0.00 | 0.00 | 95 | 1019.7 |
| 20260905095823 | 52 | 138 | 0.0 | 0.0 | 0.00 | 0.00 | 0.00 | 95 | 1019.5 |
| 20260905095322 | 51 | 138 | 0.9 | 1.7 | 0.00 | 0.00 | 0.00 | 95 | 1019.5 |
| 20260905094817 | 51 | 127 | 0.0 | 0.0 | 0.00 | 0.00 | 0.00 | 95 | 1019.4 |
| 20260905094313 | 51 | 152 | 0.0 | 0.0 | 0.00 | 0.00 | 0.00 | 95 | 1019.4 |
| 20260905093812 | 51 | 152 | 0.0 | 0.0 | 0.00 | 0.00 | 0.00 | 94 | 1019.7 |
| 20260905093308 | 51 | 151 | 0.0 | 0.0 | 0.00 | 0.00 | 0.00 | 94 | 1019.5 |
| 20260905092758 | 52 | 151 | 0.0 | 0.0 | 0.00 | 0.00 | 0.00 | 94 | 1019.4 |
| 20260905092253 | 52 | 150 | 0.0 | 0.0 | 0.00 | 0.00 | 0.00 | 94 | 1019.3 |
| 20260905091752 | 52 | 147 | 0.0 | 0.0 | 0.00 | 0.00 | 0.00 | 94 | 1019.5 |
| 20260905091247 | 52 | 137 | 0.0 | 0.0 | 0.00 | 0.00 | 0.00 | 94 | 1019.4 |
| 20260905090741 | 52 | 149 | 0.0 | 0.0 | 0.00 | 0.00 | 0.00 | 94 | 1019.5 |
| 20260905090236 | 52 | 149 | 0.0 | 0.0 | 0.00 | 0.00 | 0.00 | 94 | 1019.3 |
| 20260905085735 | 52 | 138 | 0.0 | 0.0 | 0.00 | 0.00 | 0.00 | 94 | 1019.5 |
| 20260905085230 | 52 | 146 | 0.0 | 0.0 | 0.00 | 0.00 | 0.00 | 94 | 1019.2 |
| 20260905084730 | 52 | 145 | 0.0 | 0.0 | 0.00 | 0.00 | 0.00 | 94 | 1019.3 |
| 20260905084230 | 52 | 146 | 0.0 | 0.0 | 0.00 | 0.00 | 0.00 | 94 | 1019.1 |
| 20260905083725 | 52 | 146 | 0.0 | 0.0 | 0.00 | 0.00 | 0.00 | 94 | 1019.2 |
| 20260905083221 | 52 | 152 | 0.0 | 0.0 | 0.00 | 0.00 | 0.00 | 94 | 1019.3 |
| 20260905082717 | 52 | 148 | 0.0 | 0.0 | 0.00 | 0.00 | 0.00 | 93 | 1019.4 |
| 20260905082212 | 52 | 141 | 0.0 | 0.0 | 0.00 | 0.00 | 0.00 | 93 | 1019.1 |
| 20260905081712 | 52 | 147 | 0.0 | 0.0 | 0.00 | 0.00 | 0.00 | 93 | 1019.2 |
| 20260905081207 | 52 | 146 | 0.0 | 0.0 | 0.00 | 0.00 | 0.00 | 93 | 1019.0 |
| 20260905080707 | 53 | 146 | 0.0 | 0.0 | 0.00 | 0.00 | 0.00 | 93 | 1019.2 |
| 20260905080201 | 53 | 146 | 0.0 | 0.0 | 0.00 | 0.00 | 0.00 | 93 | 1019.3 |
| 20260905075701 | 53 | 145 | 0.0 | 0.0 | 0.00 | 0.00 | 0.00 | 93 | 1019.3 |
| 20260905075200 | 53 | 147 | 0.0 | 0.0 | 0.00 | 0.00 | 0.00 | 92 | 1019.2 |
| 20260905074659 | 53 | 146 | 0.0 | 0.0 | 0.00 | 0.00 | 0.00 | 92 | 1019.2 |
| 20260905074154 | 53 | 151 | 0.0 | 0.0 | 0.00 | 0.00 | 0.00 | 92 | 1019.4 |
| 20260905073650 | 53 | 147 | 0.0 | 0.0 | 0.00 | 0.00 | 0.00 | 92 | 1019.4 |
| 20260905073146 | 53 | 140 | 0.0 | 0.0 | 0.00 | 0.00 | 0.00 | 92 | 1019.2 |
| 20260905072644 | 53 | 147 | 0.0 | 0.0 | 0.00 | 0.00 | 0.00 | 91 | 1019.1 |
| 20260905072140 | 53 | 151 | 0.0 | 0.0 | 0.00 | 0.00 | 0.00 | 91 | 1019.3 |
| 20260905071637 | 53 | 150 | 0.0 | 0.0 | 0.00 | 0.00 | 0.00 | 91 | 1019.3 |
| 20260905071132 | 54 | 149 | 0.0 | 0.0 | 0.00 | 0.00 | 0.00 | 91 | 1019.0 |
| 20260905070627 | 54 | 145 | 0.0 | 0.0 | 0.00 | 0.00 | 0.00 | 90 | 1018.8 |
| 20260905070123 | 54 | 152 | 0.0 | 0.0 | 0.00 | 0.00 | 0.00 | 90 | 1019.2 |
| 20260905065621 | 54 | 150 | 0.0 | 0.0 | 0.00 | 0.01 | 0.01 | 90 | 1019.0 |
| 20260905065116 | 54 | 147 | 0.0 | 0.0 | 0.00 | 0.01 | 0.01 | 90 | 1018.9 |
| 20260905064611 | 54 | 147 | 0.0 | 0.0 | 0.00 | 0.01 | 0.01 | 90 | 1019.0 |
| 20260905064106 | 54 | 147 | 0.0 | 0.0 | 0.00 | 0.01 | 0.01 | 90 | 1019.0 |
| 20260905063605 | 55 | 151 | 0.0 | 0.0 | 0.00 | 0.01 | 0.01 | 89 | 1018.9 |
| 20260905063101 | 55 | 149 | 0.0 | 0.0 | 0.00 | 0.01 | 0.01 | 89 | 1018.9 |
| 20260905062557 | 55 | 149 | 0.0 | 0.0 | 0.00 | 0.01 | 0.01 | 88 | 1018.7 |
| 20260905062050 | 55 | 160 | 0.0 | 0.0 | 0.00 | 0.01 | 0.01 | 88 | 1018.8 |
| 20260905061545 | 55 | 146 | 0.0 | 0.0 | 0.00 | 0.01 | 0.01 | 87 | 1018.5 |
| 20260905061044 | 55 | 146 | 0.0 | 0.0 | 0.00 | 0.01 | 0.01 | 87 | 1018.7 |
| 20260905060541 | 56 | 142 | 0.0 | 0.0 | 0.00 | 0.01 | 0.01 | 87 | 1018.4 |
| 20260905060036 | 56 | 145 | 0.0 | 0.0 | 0.00 | 0.01 | 0.01 | 86 | 1018.6 |
| 20260905055535 | 56 | 142 | 0.0 | 0.0 | 0.00 | 0.01 | 0.01 | 85 | 1018.3 |
| 20260905055030 | 57 | 139 | 0.0 | 0.0 | 0.00 | 0.01 | 0.01 | 85 | 1018.4 |
| 20260905054526 | 57 | 142 | 0.0 | 0.0 | 0.00 | 0.01 | 0.01 | 84 | 1018.4 |
| 20260905054021 | 57 | 139 | 0.0 | 0.0 | 0.00 | 0.01 | 0.01 | 84 | 1018.4 |
| 20260905053515 | 57 | 131 | 0.0 | 0.0 | 0.00 | 0.01 | 0.01 | 84 | 1018.4 |
| 20260905053011 | 57 | 124 | 0.0 | 0.0 | 0.00 | 0.01 | 0.01 | 84 | 1018.4 |
| 20260905052510 | 57 | 132 | 0.0 | 0.0 | 0.00 | 0.01 | 0.01 | 84 | 1018.4 |
| 20260905052004 | 57 | 120 | 0.0 | 0.0 | 0.00 | 0.01 | 0.01 | 85 | 1018.6 |
| 20260905051459 | 57 | 150 | 0.0 | 0.0 | 0.00 | 0.01 | 0.01 | 85 | 1018.5 |
| 20260905050957 | 57 | 147 | 0.0 | 0.0 | 0.00 | 0.01 | 0.01 | 84 | 1018.5 |
| 20260905050452 | 57 | 158 | 0.0 | 0.0 | 0.00 | 0.01 | 0.01 | 84 | 1018.5 |
| 20260905045948 | 57 | 153 | 0.0 | 0.0 | 0.00 | 0.01 | 0.01 | 83 | 1018.5 |
| 20260905045443 | 58 | 143 | 0.0 | 0.0 | 0.00 | 0.01 | 0.01 | 83 | 1018.6 |
| 20260905044938 | 58 | 133 | 0.0 | 0.0 | 0.00 | 0.01 | 0.01 | 83 | 1018.3 |
| 20260905044433 | 57 | 134 | 0.0 | 0.0 | 0.00 | 0.01 | 0.01 | 83 | 1018.5 |
| 20260905043932 | 57 | 136 | 0.0 | 0.0 | 0.00 | 0.01 | 0.01 | 82 | 1018.6 |
| 20260905043431 | 58 | 151 | 0.0 | 0.0 | 0.00 | 0.01 | 0.01 | 82 | 1018.7 |
| 20260905042926 | 58 | 151 | 0.0 | 0.0 | 0.00 | 0.01 | 0.01 | 82 | 1018.7 |
| 20260905042421 | 58 | 151 | 0.0 | 0.0 | 0.00 | 0.01 | 0.01 | 82 | 1018.7 |
| 20260905041916 | 58 | 152 | 0.0 | 0.0 | 0.00 | 0.01 | 0.01 | 81 | 1018.6 |
| 20260905041412 | 58 | 150 | 0.0 | 0.0 | 0.00 | 0.01 | 0.01 | 81 | 1018.4 |
| 20260905040907 | 58 | 149 | 0.0 | 0.0 | 0.00 | 0.01 | 0.01 | 81 | 1018.4 |
| 20260905040406 | 58 | 134 | 0.0 | 0.0 | 0.00 | 0.01 | 0.01 | 80 | 1018.4 |
| 20260905035906 | 58 | 137 | 0.0 | 0.0 | 0.00 | 0.01 | 0.01 | 80 | 1018.5 |
| 20260905035401 | 58 | 145 | 0.0 | 0.0 | 0.00 | 0.01 | 0.01 | 80 | 1018.5 |
| 20260905034858 | 59 | 143 | 0.0 | 0.0 | 0.00 | 0.01 | 0.01 | 79 | 1018.5 |
| 20260905034353 | 59 | 146 | 0.0 | 0.0 | 0.00 | 0.01 | 0.01 | 78 | 1018.3 |
| 20260905033851 | 59 | 120 | 0.0 | 0.0 | 0.00 | 0.01 | 0.01 | 77 | 1018.2 |
| 20260905033347 | 59 | 130 | 0.0 | 0.0 | 0.00 | 0.01 | 0.01 | 77 | 1018.5 |
| 20260905032846 | 59 | 125 | 0.0 | 0.0 | 0.00 | 0.01 | 0.01 | 78 | 1018.2 |
| 20260905032342 | 59 | 132 | 0.0 | 0.0 | 0.00 | 0.01 | 0.01 | 77 | 1018.2 |
| 20260905031837 | 59 | 123 | 0.0 | 0.0 | 0.00 | 0.01 | 0.01 | 76 | 1017.8 |
| 20260905031333 | 59 | 138 | 0.0 | 0.0 | 0.00 | 0.01 | 0.01 | 75 | 1018.1 |
| 20260905030828 | 60 | 143 | 0.0 | 0.0 | 0.00 | 0.01 | 0.01 | 75 | 1018.1 |
| 20260905030324 | 60 | 149 | 0.0 | 0.0 | 0.00 | 0.01 | 0.01 | 75 | 1018.1 |
| 20260905025823 | 60 | 146 | 0.0 | 0.0 | 0.00 | 0.01 | 0.01 | 74 | 1017.9 |
| 20260905025318 | 60 | 140 | 0.0 | 0.0 | 0.00 | 0.01 | 0.01 | 74 | 1017.9 |
| 20260905024814 | 60 | 149 | 0.0 | 0.0 | 0.00 | 0.01 | 0.01 | 74 | 1018.1 |
| 20260905024309 | 61 | 143 | 0.0 | 0.0 | 0.00 | 0.01 | 0.01 | 72 | 1017.9 |
| 20260905023805 | 61 | 145 | 0.0 | 0.0 | 0.00 | 0.01 | 0.01 | 73 | 1017.7 |
| 20260905023300 | 62 | 149 | 0.0 | 0.0 | 0.00 | 0.01 | 0.01 | 69 | 1017.8 |
| 20260905022759 | 62 | 136 | 0.0 | 0.0 | 0.00 | 0.01 | 0.01 | 69 | 1017.8 |
| 20260905022254 | 62 | 126 | 0.0 | 0.0 | 0.00 | 0.01 | 0.01 | 67 | 1017.8 |
| 20260905021754 | 63 | 140 | 0.0 | 0.0 | 0.00 | 0.01 | 0.01 | 66 | 1017.8 |
| 20260905021250 | 63 | 132 | 0.0 | 0.0 | 0.00 | 0.01 | 0.01 | 65 | 1017.9 |
| 20260905020749 | 64 | 133 | 0.0 | 0.0 | 0.00 | 0.01 | 0.01 | 65 | 1018.0 |
| 20260905020245 | 64 | 142 | 1.7 | 2.6 | 0.00 | 0.01 | 0.01 | 65 | 1017.8 |
| 20260905015743 | 65 | 128 | 1.7 | 4.3 | 0.00 | 0.01 | 0.01 | 61 | 1018.0 |
| 20260905015238 | 65 | 161 | 0.0 | 0.0 | 0.00 | 0.01 | 0.01 | 62 | 1017.9 |
| 20260905014737 | 65 | 164 | 0.0 | 0.9 | 0.00 | 0.01 | 0.01 | 60 | 1017.9 |
| 20260905014233 | 66 | 150 | 0.9 | 2.6 | 0.00 | 0.01 | 0.01 | 60 | 1017.9 |
| 20260905013728 | 66 | 119 | 0.9 | 1.7 | 0.00 | 0.01 | 0.01 | 61 | 1017.7 |
| 20260905013224 | 66 | 147 | 0.0 | 0.0 | 0.00 | 0.01 | 0.01 | 58 | 1017.7 |
| 20260905012719 | 67 | 135 | 0.0 | 0.9 | 0.00 | 0.01 | 0.01 | 56 | 1017.5 |
| 20260905012215 | 67 | 153 | 0.0 | 1.7 | 0.00 | 0.01 | 0.01 | 55 | 1017.4 |
| 20260905011712 | 68 | 149 | 0.0 | 0.0 | 0.00 | 0.01 | 0.01 | 57 | 1017.3 |
| 20260905011208 | 68 | 147 | 0.0 | 0.9 | 0.00 | 0.01 | 0.01 | 57 | 1017.3 |
| 20260905010707 | 69 | 158 | 0.9 | 2.6 | 0.00 | 0.01 | 0.01 | 52 | 1017.3 |
| 20260905010203 | 69 | 160 | 0.9 | 2.6 | 0.00 | 0.01 | 0.01 | 53 | 1017.0 |
| 20260905005659 | 70 | 156 | 2.6 | 5.2 | 0.00 | 0.01 | 0.01 | 52 | 1017.1 |
| 20260905005155 | 70 | 173 | 0.9 | 1.7 | 0.00 | 0.01 | 0.01 | 52 | 1016.9 |
| 20260905004649 | 71 | 97 | 2.6 | 4.3 | 0.00 | 0.01 | 0.01 | 52 | 1017.0 |
| 20260905004144 | 70 | 155 | 0.0 | 0.0 | 0.00 | 0.01 | 0.01 | 52 | 1016.9 |
| 20260905003639 | 70 | 96 | 1.7 | 6.1 | 0.00 | 0.01 | 0.01 | 52 | 1017.1 |
| 20260905003135 | 70 | 120 | 0.0 | 2.6 | 0.00 | 0.01 | 0.01 | 52 | 1017.0 |
| 20260905002631 | 70 | 198 | 2.6 | 5.2 | 0.00 | 0.01 | 0.01 | 52 | 1017.1 |
| 20260905002125 | 70 | 105 | 0.9 | 0.9 | 0.00 | 0.01 | 0.01 | 56 | 1016.8 |
| 20260905001621 | 70 | 138 | 2.6 | 5.2 | 0.00 | 0.01 | 0.01 | 55 | 1016.9 |
| 20260905001120 | 70 | 163 | 0.9 | 6.1 | 0.00 | 0.01 | 0.01 | 52 | 1016.7 |
| 20260905000616 | 71 | 149 | 2.6 | 2.6 | 0.00 | 0.01 | 0.01 | 48 | 1016.9 |
| 20260905000112 | 71 | 173 | 0.0 | 1.7 | 0.00 | 0.01 | 0.01 | 46 | 1016.7 |
| 20260904235611 | 71 | 190 | 1.7 | 1.7 | 0.00 | 0.01 | 0.01 | 47 | 1016.5 |
| 20260904235111 | 71 | 174 | 0.9 | 1.7 | 0.00 | 0.01 | 0.01 | 44 | 1016.7 |
| 20260904234606 | 70 | 174 | 1.7 | 2.6 | 0.00 | 0.01 | 0.01 | 47 | 1016.7 |
| 20260904234102 | 71 | 182 | 1.7 | 4.3 | 0.00 | 0.01 | 0.01 | 46 | 1016.7 |
| 20260904233602 | 73 | 195 | 1.7 | 5.2 | 0.00 | 0.01 | 0.01 | 45 | 1016.8 |
| 20260904233058 | 73 | 199 | 1.7 | 1.7 | 0.00 | 0.01 | 0.01 | 43 | 1016.8 |
| 20260904232554 | 73 | 113 | 0.0 | 2.6 | 0.00 | 0.01 | 0.01 | 44 | 1016.8 |
| 20260904232051 | 72 | 163 | 0.0 | 4.3 | 0.00 | 0.01 | 0.01 | 45 | 1016.7 |
| 20260904231546 | 72 | 116 | 2.6 | 2.6 | 0.00 | 0.01 | 0.01 | 46 | 1016.6 |
| 20260904231041 | 72 | 226 | 2.6 | 2.6 | 0.00 | 0.01 | 0.01 | 49 | 1016.5 |
| 20260904230540 | 70 | 223 | 0.9 | 2.6 | 0.00 | 0.01 | 0.01 | 51 | 1016.6 |
| 20260904230036 | 71 | 187 | 0.9 | 4.3 | 0.00 | 0.01 | 0.01 | 50 | 1016.6 |
| 20260904225533 | 71 | 201 | 0.9 | 1.7 | 0.00 | 0.01 | 0.01 | 51 | 1016.6 |
| 20260904225033 | 71 | 241 | 4.3 | 6.1 | 0.00 | 0.01 | 0.01 | 52 | 1016.5 |
| 20260904224529 | 71 | 207 | 1.7 | 6.1 | 0.00 | 0.01 | 0.01 | 51 | 1016.4 |
| 20260904224028 | 71 | 208 | 2.6 | 6.1 | 0.00 | 0.01 | 0.01 | 49 | 1016.5 |
| 20260904223527 | 72 | 104 | 2.6 | 2.6 | 0.00 | 0.01 | 0.01 | 51 | 1016.5 |
| 20260904223023 | 71 | 188 | 2.6 | 4.3 | 0.00 | 0.01 | 0.01 | 51 | 1016.3 |
| 20260904222518 | 71 | 209 | 1.7 | 4.3 | 0.00 | 0.01 | 0.01 | 52 | 1016.4 |
| 20260904222014 | 71 | 175 | 2.6 | 4.3 | 0.00 | 0.01 | 0.01 | 52 | 1016.3 |
| 20260904221509 | 72 | 289 | 2.6 | 4.3 | 0.00 | 0.01 | 0.01 | 53 | 1016.5 |
| 20260904221009 | 71 | 182 | 1.7 | 4.3 | 0.00 | 0.01 | 0.01 | 53 | 1016.3 |
| 20260904220508 | 71 | 158 | 1.7 | 2.6 | 0.00 | 0.01 | 0.01 | 53 | 1016.4 |
| 20260904220004 | 71 | 173 | 0.9 | 2.6 | 0.00 | 0.01 | 0.01 | 53 | 1016.3 |
| 20260904215459 | 71 | 266 | 3.5 | 4.3 | 0.00 | 0.01 | 0.01 | 54 | 1016.2 |
| 20260904214954 | 70 | 47 | 1.7 | 4.3 | 0.00 | 0.01 | 0.01 | 55 | 1016.3 |
| 20260904214450 | 70 | 55 | 1.7 | 5.2 | 0.00 | 0.01 | 0.01 | 56 | 1016.3 |
| 20260904213945 | 68 | 69 | 0.9 | 2.6 | 0.00 | 0.01 | 0.01 | 58 | 1016.2 |
| 20260904213438 | 69 | 198 | 2.6 | 6.1 | 0.00 | 0.01 | 0.01 | 58 | 1016.2 |
| 20260904212935 | 69 | 86 | 0.9 | 5.2 | 0.00 | 0.01 | 0.01 | 59 | 1016.1 |
| 20260904212434 | 68 | 168 | 2.6 | 5.2 | 0.00 | 0.01 | 0.01 | 59 | 1016.3 |
| 20260904211930 | 68 | 218 | 2.6 | 5.2 | 0.00 | 0.01 | 0.01 | 60 | 1016.1 |
| 20260904211429 | 68 | 249 | 2.6 | 4.3 | 0.00 | 0.01 | 0.01 | 61 | 1016.0 |
| 20260904210925 | 68 | 227 | 3.5 | 6.1 | 0.00 | 0.01 | 0.01 | 61 | 1016.1 |
| 20260904210424 | 68 | 135 | 1.7 | 7.0 | 0.00 | 0.01 | 0.01 | 61 | 1016.2 |
| 20260904205920 | 68 | 254 | 2.6 | 4.3 | 0.00 | 0.01 | 0.01 | 61 | 1016.2 |
| 20260904205415 | 68 | 227 | 3.5 | 7.0 | 0.00 | 0.01 | 0.01 | 61 | 1016.2 |